Flag for Guinea Weather past 2 weeks in Nzérékoré, Guinea

Now
84 °F

Scattered clouds.


Feels Like: 92 °F
Forecast: 70 / 81 °F
Wind: No wind

Location: Roberts Field

Current Time: May 29, 2015 at 11:29:17 AM

Latest Report: May 29, 2015 at 11:00 AM


Visibility: N/A

Pressure: 29.89 "Hg

Humidity: 74%

Dew point: 75 °F

Location of NzérékoréLocation

Historic Weather in Nzérékoré — Graph

°F

Nzérékoré temperature yesterday

Maximum temperature yesterday: 86 °F (at 3:00 PM)
Minimum temperature yesterday: 73 °F (at 1:00 AM)
Average temperature yesterday: 77 °F

Past Weeks' High & Low Weather Summary

 TemperatureHumidityPressure
High93 °F (May 18, 1:30 PM)100% (May 24, 6:30 AM)29.98 "Hg (May 24, 6:30 AM)
Low72 °F (May 15, 6:00 AM)56% (May 18, 1:30 PM)29.80 "Hg (May 14, 4:00 PM)
Average81 °F85%29.90 "Hg
* Reported May 14 10:00 AM — May 29 10:30 AM, Nzérékoré, Weather by CustomWeather, © 2015

Note: Actual official high and low records may vary slightly from our data, if they occured in-between our weather recording intervals... More about our weather records

Advertising

Nzérékoré weather history for previous 24 hours

 ConditionsComfort  
Time TempWeatherWind HumidityBarometerVisibility
10:30 AM
Fri, May 29
82 °FBroken clouds.No wind84%29.92 "HgN/A
10:00 AM81 °FBroken clouds.No wind84%29.92 "HgN/A
9:30 AM81 °FBroken clouds.No wind84%29.92 "HgN/A
9:00 AM79 °FPartly sunny.No wind84%29.92 "HgN/A
8:30 AM77 °FPartly sunny.No wind94%29.92 "HgN/A
8:00 AM77 °FPassing clouds.No wind94%29.92 "HgN/A
7:30 AM75 °FScattered clouds.No wind94%29.89 "HgN/A
7:00 AM75 °FPassing clouds.No wind94%29.89 "HgN/A
6:30 AM75 °FPassing clouds.No wind94%29.89 "HgN/A
6:00 AM75 °FPassing clouds.No wind94%29.89 "HgN/A
5:00 AM73 °FThunderstorms. Passing clouds.No wind100%29.89 "HgN/A
4:30 AM73 °FThunderstorms. Passing clouds.No wind100%29.89 "HgN/A
4:00 AM73 °FRain. Passing clouds.No wind100%29.89 "HgN/A
3:30 AM73 °FThunderstorms. Passing clouds.3 mph100%29.89 "Hg6 mi
3:00 AM75 °FThunderstorms. Partly cloudy.14 mph94%29.86 "Hg4 mi
2:30 AM75 °FPassing clouds.6 mph94%29.89 "HgN/A
2:00 AM75 °FPassing clouds.No wind94%29.89 "HgN/A
1:30 AM75 °FPassing clouds.No wind94%29.92 "HgN/A
1:00 AM75 °FPassing clouds.No wind94%29.92 "HgN/A
12:30 AM75 °FPassing clouds.No wind94%29.92 "HgN/A
12:00 AM75 °FPassing clouds.No wind94%29.95 "HgN/A
11:30 PM
Thu, May 28
77 °FPassing clouds.No wind94%29.92 "HgN/A
11:00 PM79 °FPassing clouds.No wind94%29.92 "HgN/A
10:00 PM79 °FPassing clouds.No wind94%29.92 "HgN/A
9:30 PM79 °FPassing clouds.No wind94%29.92 "HgN/A
9:00 PM79 °FPassing clouds.No wind94%29.92 "HgN/A
8:30 PM79 °FPassing clouds.No wind94%29.92 "HgN/A
8:00 PM79 °FPassing clouds.No wind94%29.89 "Hg6 mi
7:30 PM81 °FPartly sunny.No wind84%29.89 "HgN/A
7:00 PM81 °FScattered clouds.No wind89%29.89 "HgN/A
4:30 PM84 °FPartly sunny.No wind79%29.83 "HgN/A
4:00 PM86 °FPartly sunny.3 mph75%29.83 "HgN/A
3:30 PM86 °FPartly sunny.8 mph75%29.83 "HgN/A
3:00 PM86 °FPartly sunny.5 mph75%29.83 "HgN/A
2:00 PM84 °FPartly sunny.No wind79%29.86 "HgN/A
1:30 PM84 °FPassing clouds.No wind79%29.86 "HgN/A
1:00 PM82 °FScattered clouds.No wind89%29.89 "HgN/A
12:30 PM81 °FScattered clouds.No wind84%29.89 "HgN/A
12:00 PM79 °FScattered clouds.No wind89%29.89 "HgN/A
11:30 AM77 °FScattered clouds.No wind94%29.89 "HgN/A
11:00 AM75 °FScattered clouds.No wind94%29.92 "HgN/A
Weather by CustomWeather, © 2015

See weather overviewHow to use our weather pages